Regional Weather Roundup
Issued by NWS Upton, NY

Current Version | Previous Version | Graphics & Text | Print | Product List | Glossary Off
Versions: 1 2 3 4 5 6 7 8 9 10 11 12 13 14 15 16 17 18 19 20 21 22 23 24 25 26 27 28 29 30 31 32 33 34 35 36 37 38 39 40 41 42 43 44 45 46 47 48 49 50

347
ASUS41 KOKX 060804
RWROKX

REGIONAL WEATHER ROUNDUP
NATIONAL WEATHER SERVICE NEW YORK NY
300 AM EST SAT FEB 06 2016

NOTE: "FAIR" INDICATES FEW OR NO CLOUDS BELOW 12,000 FEET WITH NO
SIGNIFICANT WEATHER AND/OR OBSTRUCTIONS TO VISIBILITY.

NYZ071-072-176-178-NJZ106-104-060900-
NEW YORK CITY METRO AREA


CITY           SKY/WX    TMP DP  RH WIND       PRES   REMARKS
CENTRAL PARK   CLEAR     31  16  54 VRB3      30.37F
LAGUARDIA APRT PTCLDY    33  18  53 NW13      30.36R WCI  24
KENNEDY INTL   PTCLDY    31  16  54 CALM      30.37S
NEWARK/LIBERTY CLOUDY    29  18  63 NW7       30.37S WCI  22
BRNX BOT. GARD   N/A     32  18  55 NW5       30.37R WCI  27
TETERBORO      CLEAR     30  16  56 NW3       30.36S
$$

NYZ177-179-078>081-060900-
LONG ISLAND NEW YORK

CITY           SKY/WX    TMP DP  RH WIND       PRES   REMARKS
FARMINGDALE    CLOUDY    24  18  77 CALM      30.36S
ISLIP          CLOUDY    16  12  84 CALM      30.33S
SHIRLEY        CLEAR     17  14  88 NW3       30.35S
RIVERHEAD        N/A     32  18  55 CALM      30.37R
WESTHAMPTON      N/A    N/A N/A N/A MISG      30.36R
EAST HAMPTON   FAIR      27  17  65 NW8       30.33R WCI  19
MONTAUK POINT    N/A     31  19  61 NW10      30.33S WCI  22
$$

NYZ052-065-067-060900-
HUDSON VALLEY

CITY           SKY/WX    TMP DP  RH WIND       PRES   REMARKS
WHITE PLAINS   CLEAR     25  15  66 CALM      30.32S
NEWBURGH       CLEAR     23  18  80 W6        30.33R WCI  16
MONTGOMERY     PTCLDY    26  17  68 W8        30.33R WCI  18
POUGHKEEPSIE   CLEAR     23  15  71 CALM      30.34R
ALBANY         CLEAR     21  14  74 S5        30.31S WCI  15
$$

NJZ001-105-106-008-010-013-015-019>022-104-060900-
NEW JERSEY

CITY           SKY/WX    TMP DP  RH WIND       PRES   REMARKS
NEWARK/LIBERTY CLOUDY    29  18  63 NW7       30.37S WCI  22
TETERBORO      CLEAR     30  16  56 NW3       30.36S
CALDWELL       CLOUDY    24  19  81 CALM      30.37S
MORRISTOWN     CLOUDY    23  19  86 CALM      30.36S
SOMERVILLE     CLOUDY    22  18  85 CALM      30.36S
SUSSEX         CLEAR     21  16  81 CALM      30.34R
ANDOVER          N/A     21  17  84 CALM      30.34S
TRENTON        CLOUDY    25  17  72 CALM      30.36S
MILLVILLE      CLOUDY    22  20  92 CALM      30.39S
ATLANTIC CITY  CLOUDY    24  22  91 CALM      30.38S
WRIGHTSTOWN    CLOUDY    28  19  70 W5        30.35R WCI  22
TOMS RIVER     PTCLDY    19  14  79 CALM      30.38S
BELMAR         PTCLDY    27  12  54 W6        30.36S WCI  20
$$

PAZ047>061-062-071-060900-
EASTERN PENNSYLVANIA

CITY           SKY/WX    TMP DP  RH WIND       PRES   REMARKS
PHILADELPHIA   CLOUDY    29  20  69 W5        30.39S WCI  24
ALLENTOWN      PTCLDY    24  17  74 SW3       30.36R
SCRANTON       CLEAR     24  17  74 CALM      30.31S
$$

CTZ002-004>006-009-010-012-RIZ004-006-007-MAZ004-011-015-060900-
SOUTHERN NEW ENGLAND
 IN CT

CITY           SKY/WX    TMP DP  RH WIND       PRES   REMARKS
BRADLEY INTL   CLOUDY    20  15  81 SW7       30.32R WCI  11
HARTFORD       CLOUDY    20  17  88 CALM      30.35R
DANBURY        PTCLDY    20  12  71 W3        30.33S
WTRBRY/OXFORD  PTCLDY    21   7  53 CALM      30.31S
BRIDGEPORT     PTCLDY    24  16  71 W5        30.35R WCI  18
MERIDEN        FOG       15  11  83 CALM      30.35R VSB 1/2
NEW HAVEN      CLOUDY    29  17  61 NW5       30.34R WCI  24
CHESTER        FAIR      28  18  64 NW7       30.32R WCI  21
GROTON         CLEAR     23  18  81 N3        30.33R
WILLIMANTIC    CLOUDY    17  13  84 CALM      30.33R

 IN RI

CITY           SKY/WX    TMP DP  RH WIND       PRES   REMARKS
PROVIDENCE       N/A     19  15  84 CALM      30.32
BLOCK ISLAND   CLEAR     28  19  69 NW10      30.31R WCI  19
WESTERLY       CLEAR     22  17  81 NW6       30.32R WCI  14

 IN MA

CITY           SKY/WX    TMP DP  RH WIND       PRES   REMARKS
BOSTON         CLEAR     24  15  68 W7        30.30R WCI  16
WORCESTER      CLOUDY    16   9  74 W5        30.24R WCI   9
WESTFIELD      CLEAR     16  12  84 CALM      30.31R
PROVINCETOWN   CLEAR     28  22  78 N17       30.28R WCI  16
NANTUCKET      CLEAR     30  23  75 NW10      30.29R WCI  21
$$

ANZ330-335-338-340-345-350-353-355-060900-
COASTAL MARINE OBSERVATIONS


STATION/POSITION TIME  SKY/WX   TEMP    WIND        PRES    VSBY  WAVE
                                AIR SEA DIR/SP/G                  HT/PER
                 (UTC)          (F)     (DEG/KT/KT) (MB)    (MI)  (FT/S)
NY HARB ENTRANCE 0650            36 44  320/ 12/ 16 1027.7          3/ 9
4S FIRE IS       NOT AVBL
20S FIRE ISLAND  0650            36 45  330/ 14/ 17 1027.4          4/ 5
GREAT SOUTH BAY  NOT AVBL
23SW MTP         0750            34 46  320/ 16/ 19 1026.7          4/11
HUDSON CANYON    0650            40 51              1026.6          7/ 7
KINGS POINT      0700            32 39   30/  5/  7 1027.6
EXECUTION ROCKS  NOT AVBL
CENTRAL LI SOUND 0700            33     320/ 16/ 21   N/A           2/ 3
EASTERN LI SOUND 0700            31 42  320/ 10/ 14   N/A
ROBBINS REEF     0700            32     310/  7/  8 1027.6
$$


>>>>>>>>>>>>>>>>>>>>>>>>>>>> KEY <<<<<<<<<<<<<<<<<<<<<<<<<<<
>                                                          <
>     SKY/WX - SKY CONDITION/PRESENT WEATHER               <
>     TMP    - TEMPERATURE IN FAHRENHEIT                   <
>     DP     - DEWPOINT IN FAHRENHEIT                      <
>     RH     - RELATIVE HUMIDITY IN PERCENT                <
>     WIND   - DIRECTION AND SPEED IN MPH                  <
>     PRES   - MEAN SEA LEVEL PRESSURE IN INCHES OF HG     <
>     WCI    - WIND CHILL INDEX                            <
>     VSB    - VISIBILITY IN MILES                         <
>     HX     - HEAT INDEX                                  <
>     TC     - TEMPERATURE IN CELSIUS                      <
>     VRB    - VARIABLE WIND DIRECTION                     <
>                                                          <
>>>>>>>>>>>>>>>>>>>>>>>>>>>> KEY <<<<<<<<<<<<<<<<<<<<<<<<<<<






USA.gov is the U.S. government's official web portal to all federal, state and local government web resources and services.